Weather in Rayong

Thailand     12°40′11″N   101°15′31″E
temp.,
°C
wind,
m/s
gust,
m/s
humid.,
%
clouds,
%
prec.,
mm/h
press.,
hPa
HPBL,
m
13 june, sun
sun1301:00+27wsw4977100 0.0 1007517
04:00+26wsw4977100 3.1 1007568
07:00+26wsw3885100 4.6 1008296
10:00+27wsw5880100 2.0 1009745
13:00+31sw6963100 3.1 10071531
16:00+29wsw586786 1.1 10061201
19:00+27w3775100 1.4 1008486
22:00+26w2578100 0.1 1010166
14 june, mon
mon1401:00+27sw3676100 0.1 1008288
04:00+27wsw3677100 0.0 1007285
07:00+27wsw3877100 0.0 1009625
10:00+30sw6864100 0.1 10091338
13:00+31sw6860100 0.1 10081583
16:00+30ssw6864100 0.7 10051000
19:00+28sw51073100 2.1 1007717
22:00+28sw4774100 0.1 1009620
15 june, tue
tue1501:00+26wsw4984100 2.2 1008326
04:00+26wsw368394 2.4 1007217
07:00+27wsw3881100 2.9 1008438
10:00+28wsw5877100 3.2 1009748
13:00+29sw4674100 8.6 1008919
16:00+29sw357288 1.4 1006889
19:00+26s2385100 3.1 100784
22:00+26sw3483100 0.8 100993
16 june, wed
wed1601:00+25wsw3889100 1.9 1008242
04:00+25wsw3588100 5.4 1008122
07:00+26sw3788100 8.9 1009281
10:00+28sw5880100 5.8 1010792
13:00+30sw6865100 6.8 10081257
16:00+30w6966100 0.7 10071031
19:00+27w3879100 1.8 1008426
22:00+27wsw2575100 0.0 1010237
17 june, thu
thu1701:00+26w2577100 0.0 1009183
04:00+26wsw2477100 0.0 1008172
07:00+27wsw1578100 0.0 1010293
10:00+30w3464100 0.1 10111004
13:00+28wsw3473100 0.2 1009371
16:00+31sw245897 0.0 10071327
19:00+27s348298 1.9 1009148
22:00+26wsw118466 2.3 101124